Terminal Aerodrome Forecast
Issued by NWS

Home | Current Version | Previous Version | Graphics & Text | Print | Product List | Glossary On
Versions: 1 2 3 4 5 6 7 8 9 10 11 12 13 14
000
FTUS43 KICT 281125
TAFCNU
TAF
KCNU 281125Z 2812/2912 18014KT P6SM FEW250
     FM281500 19018G26KT P6SM SCT250
     FM290000 18013KT P6SM FEW250
     FM290700 18013KT P6SM BKN015=

USA.gov is the U.S. government's official web portal to all federal, state and local government web resources and services.